Flag for China Weather past 2 weeks in Chongqing, Chongqing Municipality, China

Now
52 °F

Mostly cloudy.


Feels Like: 48 °F
Forecast: 48 / 51 °F
Wind: 10 mph from Northeast

Location: Chongqing Airport

Current Time: Jan 27, 2015 at 9:17:32 PM

Latest Report: Jan 27, 2015 at 8:00 PM


Visibility: 5 mi

Pressure: 29.95 "Hg

Humidity: 88%

Dew point: 48 °F

Location of ChongqingLocation

Historic Weather in Chongqing — Graph

°F

Chongqing temperature yesterday

Maximum temperature yesterday: 54 °F (at 12:00 AM)
Minimum temperature yesterday: 52 °F (at 1:00 AM)
Average temperature yesterday: 53 °F

Past Weeks' High & Low Weather Summary

 TemperatureHumidityPressure
High64 °F (Jan 22, 3:00 PM)94% (Jan 27, 7:00 AM)30.48 "Hg (Jan 27, 7:00 AM)
Low41 °F (Jan 13, 5:00 AM)31% (Jan 13, 3:00 PM)29.74 "Hg (Jan 23, 6:00 PM)
Average51 °F73%30.17 "Hg
* Reported Jan 12 8:00 PM — Jan 27 8:00 PM, Chongqing, Weather by CustomWeather, © 2014

Note: Actual official high and low records may vary slightly from our data, if they occured in-between our weather recording intervals... More about our weather records

Advertising

Chongqing weather history for previous 24 hours

 ConditionsComfort  
Time TempWeatherWind HumidityBarometerVisibility
8:00 PM
Jan 27
52 °FMostly cloudy.10 mph88%29.95 "Hg5 mi
7:00 PM52 °FFog.8 mph94%29.92 "Hg2 mi
6:00 PM52 °FLight rain. Fog.8 mph94%29.92 "Hg1 mi
5:00 PM52 °FLight rain. Fog.6 mph94%29.89 "Hg1 mi
4:00 PM52 °FLight rain. Fog.3 mph94%29.92 "Hg1 mi
3:00 PM52 °FLight rain. Fog.3 mph94%29.92 "Hg1 mi
2:00 PM52 °FLight rain. Fog.1 mph94%29.95 "Hg1 mi
1:00 PM52 °FLight rain. Fog.1 mph94%30.01 "Hg0 mi
12:00 PM52 °FLight rain. Fog.1 mph94%30.04 "Hg0 mi
11:00 AM52 °FLight rain. Fog.1 mph94%30.07 "Hg0 mi
10:00 AM52 °FLight rain. Fog.1 mph94%30.07 "Hg1 mi
9:00 AM52 °FLight rain. Fog.1 mph94%30.07 "Hg1 mi
8:00 AM50 °FLight rain. Fog.1 mph94%30.04 "Hg1 mi
7:00 AM50 °FLight rain. Fog.1 mph94%30.04 "Hg0 mi
6:00 AM52 °FLight rain. Fog.No wind88%30.04 "Hg1 mi
5:00 AM52 °FLight rain. Fog.1 mph88%30.04 "Hg1 mi
4:00 AM52 °FLight rain. Fog.No wind88%30.04 "Hg1 mi
3:00 AM52 °FLight rain. Fog.1 mph88%30.07 "Hg1 mi
2:00 AM52 °FFog.3 mph88%30.07 "Hg1 mi
1:00 AM54 °FFog.3 mph82%30.07 "Hg1 mi
12:00 AM54 °FFog.3 mph82%30.07 "Hg1 mi
11:00 PM
Jan 26
54 °FFog.3 mph82%30.09 "Hg1 mi
10:00 PM54 °FFog.6 mph82%30.07 "Hg1 mi
9:00 PM54 °FFog.3 mph82%30.07 "Hg1 mi
Weather by CustomWeather, © 2014

See weather overviewHow to use our weather pages